Flag for Canada Weather past 2 weeks in Stephenville, Newfoundland and Labrador, Canada

Now
30 °F

More clouds than sun.


Feels Like: 18 °F
Forecast: 24 / 33 °F
Wind: 17 mph from Southwest

Location: Stephenville

Current Time: Apr 1, 2015 at 3:01:43 PM

Latest Report: Apr 1, 2015 at 2:30 PM


Visibility: 15 mi

Pressure: 29.66 "Hg

Humidity: 86%

Dew point: 27 °F

Location of StephenvilleLocation

Historic Weather in Stephenville — Graph

°F

Stephenville temperature yesterday

Maximum temperature yesterday: 34 °F (at 11:30 AM)
Minimum temperature yesterday: 25 °F (at 1:30 AM)
Average temperature yesterday: 28 °F

Past Weeks' High & Low Weather Summary

 TemperatureHumidityPressure
High37 °F (Mar 22, 12:30 PM)100% (Mar 22, 8:30 AM)30.27 "Hg (Mar 22, 8:30 AM)
Low5 °F (Mar 25, 7:30 AM)40% (Mar 30, 11:30 AM)28.74 "Hg (Mar 22, 2:16 PM)
Average27 °F80%29.66 "Hg
* Reported Mar 17 1:30 PM — Apr 1 1:30 PM, Stephenville, Weather by CustomWeather, © 2015

Note: Actual official high and low records may vary slightly from our data, if they occured in-between our weather recording intervals... More about our weather records

Advertising

Stephenville weather history for previous 24 hours

 ConditionsComfort  
Time TempWeatherWind HumidityBarometerVisibility
1:30 PM
Wed, Apr 1
30 °FSnow flurries. More clouds than sun.9 mph86%29.67 "Hg12 mi
12:30 PM30 °FCloudy.16 mph86%29.70 "Hg15 mi
11:30 AM30 °FCloudy.15 mph86%29.68 "Hg15 mi
10:30 AM30 °FMostly cloudy.10 mph86%29.66 "Hg15 mi
9:30 AM30 °FMostly cloudy.13 mph86%29.64 "Hg10 mi
8:30 AM28 °FLight mixture of precip. Ice fog.17 mph100%29.62 "Hg2 mi
7:30 AM28 °FLight snow. Ice fog.13 mph100%29.60 "Hg2 mi
6:30 AM28 °FOvercast.3 mph93%29.57 "Hg15 mi
5:30 AM28 °FLight snow. Overcast.5 mph86%29.56 "Hg8 mi
5:16 AM28 °FLight snow. Overcast.9 mph86%29.56 "Hg8 mi
4:30 AM28 °FPassing clouds.13 mph86%29.54 "Hg15 mi
3:30 AM28 °FPassing clouds.10 mph93%29.52 "Hg15 mi
2:30 AM28 °FLight snow. Passing clouds.10 mph93%29.49 "Hg15 mi
1:30 AM28 °FLight snow. Overcast.7 mph86%29.46 "Hg15 mi
12:30 AM30 °FLight snow. Overcast.9 mph80%29.44 "Hg12 mi
11:30 PM
Tue, Mar 31
30 °FLight snow. Overcast.8 mph86%29.42 "Hg12 mi
10:30 PM30 °FLight snow. Overcast.7 mph86%29.42 "Hg15 mi
9:30 PM30 °FOvercast.8 mph80%29.44 "Hg15 mi
8:30 PM28 °FLight snow. Overcast.10 mph86%29.44 "Hg6 mi
7:30 PM27 °FLight snow. Overcast.10 mph86%29.47 "Hg2 mi
6:30 PM27 °FLight snow. Ice fog.10 mph93%29.49 "Hg1 mi
5:30 PM27 °FSnow. Ice fog.13 mph100%29.52 "Hg1 mi
5:21 PM27 °FSnow. Ice fog.12 mph100%29.52 "Hg1 mi
4:30 PM28 °FLight snow. Ice fog.12 mph86%29.52 "Hg1 mi
4:22 PM28 °FLight snow. Ice fog.13 mph86%29.52 "Hg1 mi
3:30 PM32 °FCloudy.15 mph64%29.54 "Hg15 mi
Weather by CustomWeather, © 2015

See weather overviewHow to use our weather pages